Find Starlink 31426

NORAD ID: 59249 Int'l Des: 2024-049 Owner: SPXS Country: US Constellation: starlink operational
LEOCIRCULAR

リアルタイム位置

3D地球を読み込み中...

Starlink 31426について

説明を読み込み中...

次回通過

Passes for default location (London). Set your location on the main map for personalized predictions.

高度履歴

Loading altitude history...

軌道要素

1 59249U 24049U 26132.44097717 .00000913 00000-0 42689-4 0 9997
2 59249 43.0024 143.6945 0001407 272.8424 87.2267 15.27578475122140
Epoch: May 12, 2026 • Age: 22 hours

現在のステータス

高度 485.8 km
速度 7.62 km/s
衛星直下点 -16.19°S, 122.67°E
打ち上げ日 Mar 16, 2024
運用期間 2.1 years
タイプ internet

技術仕様

分類 Payload
質量 730.00 kg
乾燥質量 700.00 kg
総質量 730.00 kg
長さ 0.30 m
直径 4.10 m
スパン 29.00 m
形状 Box + pan
製造者 SPXS
バスタイプ Starlink V2M
フェーズステータス In Orbit
所有者/国 SPXS/US

Most Searched